Le nostre stazioni meteo in Italia

Pubblicità
Il mio iltempo24.it
Torino/Caselle, Italia (16059): Temperatura & dewpoint: 19.05.2019 08:00:00 - 25.05.2019 08:00:00 (CEST)Torino/Caselle, Italia (16059): velocità del vento: 19.05.2019 08:00:00 - 25.05.2019 08:00:00 (CEST)Torino/Caselle, Italia (16059): direzione del vento: 19.05.2019 08:00:00 - 25.05.2019 08:00:00 (CEST)Torino/Caselle, Italia (16059): reduced air pressure: 19.05.2019 08:00:00 - 25.05.2019 08:00:00 (CEST)Torino/Caselle, Italia (16059): visibility: 19.05.2019 08:00:00 - 25.05.2019 08:00:00 (CEST)Torino/Caselle, Italia (16059): precipitazioni: 19.05.2019 08:00:00 - 25.05.2019 08:00:00 (CEST)
Data & Tempo tt [°C] td [°C] ff [km/h] ff [kn] dd ppp [hPa] vv [km] rr [mm]
25.05.2019 08:00:00 - - - - - - - -
25.05.2019 07:00:00 15,0 11,0 5 3 ONO - 10 -
25.05.2019 06:00:00 14,0 11,0 4 2 OSO - 10 -
25.05.2019 05:00:00 15,0 11,0 8 4 NO 1013,6 10 0,0
25.05.2019 04:00:00 14,0 11,0 8 4 N - 10 -
25.05.2019 03:00:00 15,0 11,0 5 3 NO - 10 -
25.05.2019 02:00:00 14,8 11,3 8 4 ONO 1013,5 10 -
25.05.2019 01:00:00 15,0 12,0 8 4 NO - 10 -
25.05.2019 00:00:00 16,0 12,0 9 5 ONO - 10 -
24.05.2019 23:00:00 15,5 13,1 8 4 O 1013,2 10 0,0
24.05.2019 22:00:00 17,0 13,0 5 3 N - 10 -
24.05.2019 21:00:00 19,0 12,0 15 8 OSO - 10 -
24.05.2019 20:00:00 17,7 13,4 21 11 ONO 1012,6 10 -
24.05.2019 19:00:00 18,0 12,0 21 11 ONO - 10 -
24.05.2019 18:00:00 18,0 12,0 24 13 OSO - 10 -
24.05.2019 17:00:00 22,5 13,8 13 7 E 1012,3 10 0,0
24.05.2019 16:00:00 23,0 14,0 8 4 ENE - 10 -
24.05.2019 15:00:00 24,0 13,0 5 3 - - 10 -
24.05.2019 14:00:00 23,0 14,0 9 5 E 1013,5 10 -
24.05.2019 13:00:00 21,0 12,0 8 4 ENE - 10 -
24.05.2019 12:00:00 20,0 14,0 8 4 E - 10 -
24.05.2019 11:00:00 19,7 13,6 8 4 ENE 1014,8 10 0,0
24.05.2019 10:00:00 18,0 13,0 8 4 E - 10 -
24.05.2019 09:00:00 17,0 14,0 4 2 - - 10 -
24.05.2019 08:00:00 17,2 13,6 2 1 - 1014,6 10 -
24.05.2019 07:00:00 16,0 13,0 4 2 - - 10 -
24.05.2019 06:00:00 15,0 11,0 8 4 O - 10 -
24.05.2019 05:00:00 14,7 11,5 4 2 O 1014,1 10 0,0
24.05.2019 04:00:00 15,0 12,0 9 5 ONO - 10 -
24.05.2019 03:00:00 15,0 12,0 5 3 N - 10 -
24.05.2019 02:00:00 15,8 12,4 5 3 ONO 1014,4 10 -
24.05.2019 01:00:00 18,0 13,0 4 2 - - 10 -
24.05.2019 00:00:00 18,0 13,0 5 3 NNO - 10 -
23.05.2019 23:00:00 18,8 12,1 2 1 - 1014,2 10 0,0
23.05.2019 22:00:00 20,0 13,0 4 2 - - 10 -
23.05.2019 21:00:00 22,0 12,0 4 2 ENE - 10 -
23.05.2019 20:00:00 22,5 12,5 4 2 E 1013,1 10 -
23.05.2019 19:00:00 24,0 11,0 4 2 - - 10 -
23.05.2019 18:00:00 24,0 12,0 9 5 E - 10 -
23.05.2019 17:00:00 24,2 11,7 11 6 SE 1013,9 10 0,0
23.05.2019 16:00:00 24,0 12,0 5 3 - - 10 -
23.05.2019 15:00:00 23,0 12,0 11 6 ESE - 10 -
23.05.2019 14:00:00 22,3 12,3 11 6 E 1015,5 10 -
23.05.2019 13:00:00 21,0 12,0 8 4 E - 10 -
23.05.2019 12:00:00 21,0 12,0 8 4 ESE - 10 -
23.05.2019 11:00:00 19,7 11,2 4 2 - 1017,0 10 0,0
23.05.2019 10:00:00 18,0 13,0 5 3 NNE - 10 -
23.05.2019 09:00:00 17,0 13,0 8 4 NNO - 10 -
23.05.2019 08:00:00 15,0 13,2 4 2 - 1017,2 10 -
23.05.2019 07:00:00 13,0 13,0 4 2 E - 10 -
23.05.2019 06:00:00 14,0 13,0 5 3 SSO - 10 -
23.05.2019 05:00:00 15,4 13,7 9 5 ONO 1016,3 10 0,0
23.05.2019 04:00:00 15,0 14,0 13 7 O - 10 -
23.05.2019 03:00:00 15,0 14,0 15 8 N - 8 -
23.05.2019 02:00:00 14,6 11,9 4 2 - 1016,5 10 -
23.05.2019 01:00:00 17,0 10,0 8 4 S - 10 -
23.05.2019 00:00:00 17,0 13,0 13 7 SSO - 3,5 -
22.05.2019 23:00:00 17,9 12,0 5 3 NE 1015,5 10 0,0
22.05.2019 22:00:00 19,0 12,0 8 4 SSE - 10 -
22.05.2019 21:00:00 21,0 12,0 13 7 SSE - 10 -
22.05.2019 20:00:00 22,4 12,8 9 5 SE 1013,2 10 -
22.05.2019 19:00:00 24,0 12,0 9 5 ESE - 10 -
22.05.2019 18:00:00 24,0 12,0 8 4 E - 10 -
22.05.2019 17:00:00 24,1 12,4 8 4 SE 1013,0 10 0,0
22.05.2019 16:00:00 24,0 12,0 8 4 SE - 10 -
22.05.2019 15:00:00 23,0 11,0 8 4 S - 10 -
22.05.2019 14:00:00 22,6 11,5 11 6 SSO 1013,9 10 -
22.05.2019 13:00:00 22,0 12,0 8 4 S - 10 -
22.05.2019 12:00:00 20,0 12,0 9 5 - - 10 -
22.05.2019 11:00:00 19,2 12,0 8 4 S 1014,5 10 0,0
22.05.2019 10:00:00 17,0 13,0 5 3 - - 10 -
22.05.2019 09:00:00 16,0 12,0 8 4 SO - 10 -
22.05.2019 08:00:00 14,3 12,4 9 5 SO 1014,2 10 -
22.05.2019 07:00:00 12,0 12,0 4 2 - - 10 -
22.05.2019 06:00:00 12,0 11,0 8 4 SE - 10 -
22.05.2019 05:00:00 12,2 11,3 4 2 - 1013,4 10 0,0
22.05.2019 04:00:00 13,0 12,0 8 4 SO - 10 -
22.05.2019 03:00:00 14,0 12,0 9 5 SO - 10 -
22.05.2019 02:00:00 14,6 11,8 5 3 SO 1013,8 10 -
22.05.2019 01:00:00 15,0 12,0 5 3 SSO - 10 -
22.05.2019 00:00:00 16,0 12,0 4 2 - - 10 -
21.05.2019 23:00:00 16,5 11,9 8 4 O 1012,9 10 0,0
21.05.2019 22:00:00 16,0 13,0 8 4 SE - 10 -
21.05.2019 21:00:00 18,0 14,0 9 5 S - 10 -
21.05.2019 20:00:00 18,6 13,9 5 3 ESE 1010,2 10 -
21.05.2019 19:00:00 19,0 13,0 11 6 SSE - 10 -
21.05.2019 18:00:00 23,0 12,0 13 7 OSO - 10 -
21.05.2019 17:00:00 23,8 13,2 8 4 ESE 1009,0 10 0,0
21.05.2019 16:00:00 24,0 12,0 2 1 - - 10 -
21.05.2019 15:00:00 23,0 13,0 4 2 - - 10 -
21.05.2019 14:00:00 21,3 12,5 8 4 SSO 1009,3 10 -
21.05.2019 13:00:00 20,0 12,0 8 4 SSE - 10 -
21.05.2019 12:00:00 18,0 12,0 11 6 SSO - 10 -
21.05.2019 11:00:00 17,7 11,3 8 4 SSE 1009,1 10 0,0
21.05.2019 10:00:00 16,0 12,0 8 4 S - 10 -
21.05.2019 09:00:00 14,0 12,0 8 4 SSO - 10 -
21.05.2019 08:00:00 12,9 10,5 8 4 OSO 1008,4 10 -
21.05.2019 07:00:00 12,0 10,0 5 3 O - 10 -
21.05.2019 06:00:00 12,0 10,0 8 4 O - 10 -
21.05.2019 05:00:00 11,6 10,0 5 3 O 1007,8 10 0,0
21.05.2019 04:00:00 13,0 11,0 9 5 OSO - 10 -
21.05.2019 03:00:00 13,0 12,0 4 2 - - 10 -
21.05.2019 02:00:00 12,5 11,0 4 2 - 1007,8 10 -
21.05.2019 01:00:00 13,0 11,0 4 2 NNO - 10 -
21.05.2019 00:00:00 14,0 11,0 5 3 NNE - 10 -
20.05.2019 23:00:00 14,1 11,5 5 3 NNE 1007,3 10 0,0
20.05.2019 22:00:00 15,0 11,0 4 2 ENE - 10 -
20.05.2019 21:00:00 16,0 12,0 2 1 E - 10 -
20.05.2019 20:00:00 16,7 12,5 5 3 E 1006,3 10 -
20.05.2019 19:00:00 17,0 13,0 8 4 ENE - 10 -
20.05.2019 18:00:00 18,0 13,0 11 6 E - 10 -
20.05.2019 17:00:00 17,7 12,2 15 8 E 1005,7 10 0,0
20.05.2019 16:00:00 19,0 12,0 9 5 ESE - 10 -
20.05.2019 15:00:00 18,0 11,0 9 5 S - 10 -
20.05.2019 14:00:00 17,3 12,5 5 3 - 1005,5 10 -
20.05.2019 13:00:00 16,0 11,0 8 4 SSO - 10 -
20.05.2019 12:00:00 15,0 12,0 8 4 SSO - 10 -
20.05.2019 11:00:00 13,8 11,9 9 5 SSO 1005,3 10 0,0
20.05.2019 10:00:00 13,0 12,0 4 2 - - 10 -
20.05.2019 09:00:00 12,0 12,0 2 1 - - 8 -
20.05.2019 08:00:00 11,8 11,3 2 1 - 1004,9 8 -
20.05.2019 07:00:00 11,0 11,0 5 3 NO - 8 -
20.05.2019 06:00:00 11,0 11,0 4 2 NNO - 7 -
20.05.2019 05:00:00 11,6 11,4 5 3 ONO 1004,5 7 0,0
20.05.2019 04:00:00 11,0 11,0 4 2 SO - 4,0 -
20.05.2019 03:00:00 11,0 11,0 2 1 NE - 1,2 -
20.05.2019 02:00:00 11,9 11,4 5 3 ONO 1005,0 10 -
20.05.2019 01:00:00 12,0 12,0 5 3 NNO - 10 -
20.05.2019 00:00:00 12,0 12,0 8 4 N - 7 -
19.05.2019 23:00:00 12,4 12,0 5 3 N 1006,2 7 0,0
19.05.2019 22:00:00 12,0 12,0 8 4 NNO - 6 -
19.05.2019 21:00:00 13,0 12,0 8 4 N - 7 -
19.05.2019 20:00:00 12,8 11,9 9 5 NNO 1005,3 8 -
19.05.2019 19:00:00 13,0 12,0 16 9 NNE - 10 -
19.05.2019 18:00:00 15,0 11,0 5 3 ESE - 10 -
19.05.2019 17:00:00 15,3 10,4 8 4 E 1004,8 10 0,0
19.05.2019 16:00:00 16,0 10,0 5 3 ESE - 10 -
19.05.2019 15:00:00 16,0 9,0 5 3 N - 10 -
19.05.2019 14:00:00 14,7 10,6 9 5 ONO 1005,1 10 -
19.05.2019 13:00:00 13,0 11,0 9 5 ONO - 10 -
19.05.2019 12:00:00 12,0 11,0 4 2 - - 5 -
19.05.2019 11:00:00 11,8 10,4 2 1 - 1005,3 5 0,0
19.05.2019 10:00:00 11,0 11,0 5 3 SO - 5 -
19.05.2019 09:00:00 11,0 10,0 4 2 OSO - 5 -
19.05.2019 08:00:00 11,1 10,2 2 1 - 1005,0 7 -

tt = Temperatura
td = dewpoint
ff = velocità del vento
dd = direzione del vento
ppp = reduced air pressure
vv = visibility
rr = precipitazioni

Stazioni seguenti

WeatherPro
AMSI
MeteoEarth